[[{"header":{"parameterUnit":"m.s-1","parameterCategory":1,"la1":30.2992,"la2":30.254,"lo1":-89.0895,"lo2":-89.0443,"dy":0.0025,"dx":0.0025,"nx":19,"ny":19,"refTime":"2026-04-17T09:00:00:Z","depth":0,"parameterNumber":2,"parameterNumberName":"U-component_of_WINDS"},"data":[0,0,0,-0.2034,-0.203,-0.1821,-0.182,-0.1585,-0.1583,0,0,0,0,0,0,0,0,0,0,0,-0.2117,-0.2116,-0.2034,-0.2029,-0.1821,-0.182,-0.1585,-0.1583,0,0,0,0,0,0,0,0,0,0,0,-0.2117,-0.2116,-0.2115,-0.2029,-0.1821,-0.182,-0.1586,-0.1731,0,0,0,0,0,0,0,0,0,0,-0.1928,-0.2026,-0.2116,-0.2115,-0.2028,-0.1822,-0.182,-0.1738,-0.1722,-0.1694,0,-0.1676,0,-0.1626,-0.157,-0.1569,0,0,0,-0.2013,-0.2039,-0.1964,-0.2115,-0.2026,-0.1822,-0.191,-0.1729,-0.1711,-0.1674,-0.1672,-0.1663,-0.1623,-0.1569,-0.1568,-0.1464,-0.1465,0,0,-0.2024,-0.209,-0.1976,-0.1954,-0.199,-0.1917,-0.1904,-0.1718,-0.172,-0.1671,-0.1657,-0.1619,-0.1567,-0.1566,-0.1464,-0.1465,0,0,0,-0.2069,-0.2099,-0.2027,-0.1965,-0.1925,-0.1912,-0.1896,-0.1728,-0.1699,-0.1654,-0.1616,-0.1566,-0.1564,-0.1464,-0.1464,-0.1544,0,0,0,-0.2075,-0.2124,-0.2033,-0.2071,-0.1929,-0.1824,-0.1912,-0.1712,-0.1689,-0.1617,-0.1566,-0.1562,-0.1463,-0.1464,-0.1541,-0.1571,0,0,0,-0.2123,-0.213,-0.2107,-0.2075,-0.1988,-0.1826,-0.1786,-0.1706,-0.1667,-0.1569,-0.1561,-0.1463,-0.1464,-0.1538,-0.1566,-0.1564,0,0,0,-0.2193,-0.2179,-0.211,-0.208,-0.1991,-0.1878,-0.1786,-0.1698,-0.1623,-0.1565,-0.1463,-0.1464,-0.1538,-0.1563,-0.1562,-0.1575,-0.1586,0,0,-0.2212,-0.2184,-0.2161,-0.2093,-0.201,-0.1904,-0.183,-0.1699,-0.1628,-0.1523,-0.1519,-0.1542,-0.1566,-0.1563,-0.1627,-0.1637,0,0,0,-0.219,-0.2175,-0.2138,-0.2072,-0.1972,-0.1889,-0.1762,-0.1713,-0.1621,-0.1588,-0.1538,-0.155,-0.1546,-0.1549,-0.1558,-0.155,-0.1468,-0.1468,-0.1468,-0.2312,-0.2224,-0.2181,-0.2069,-0.2005,-0.1875,-0.1815,-0.1727,-0.1654,-0.1645,-0.1613,-0.1663,-0.1669,-0.1675,-0.1668,-0.1612,-0.1612,-0.1612,-0.1613,-0.2333,-0.2298,-0.2205,-0.213,-0.2037,-0.1972,-0.1846,-0.1798,-0.1723,-0.1679,-0.167,-0.1631,-0.1688,-0.1678,-0.1618,-0.1617,-0.1616,-0.1616,-0.1615,-0.2404,-0.2372,-0.2315,-0.221,-0.2139,-0.2024,-0.1958,-0.1874,-0.1795,-0.1787,-0.1745,-0.1743,-0.1732,-0.1773,-0.1773,-0.1773,-0.1773,-0.1774,-0.1774,-0.2502,-0.2434,-0.2389,-0.2284,-0.2231,-0.215,-0.202,-0.1964,-0.1881,-0.1825,-0.1824,-0.1755,-0.171,-0.1702,-0.1776,-0.1775,-0.1775,-0.1775,-0.1775,-0.2557,-0.2532,-0.2463,-0.241,-0.228,-0.2215,-0.211,-0.2005,-0.1946,-0.1916,-0.1847,-0.1828,-0.1792,-0.1785,-0.1777,-0.1866,-0.1866,-0.1866,-0.1866,-0.2618,-0.2593,-0.2504,-0.2425,-0.2338,-0.2236,-0.216,-0.2059,-0.1949,-0.1908,-0.1882,-0.1864,-0.1861,-0.1827,-0.1819,-0.181,-0.1906,-0.1906,-0.1906,-0.2648,-0.261,-0.2563,-0.2458,-0.235,-0.2258,-0.2185,-0.2096,-0.1966,-0.1905,-0.1873,-0.1872,-0.1842,-0.1837,-0.1776,-0.1765,-0.1748,0,0]},{"header":{"parameterUnit":"m.s-1","parameterCategory":1,"la1":30.2992,"la2":30.254,"lo1":-89.0895,"lo2":-89.0443,"dy":0.0025,"dx":0.0025,"nx":19,"ny":19,"refTime":"2026-04-17T09:00:00:Z","depth":0,"parameterNumber":3,"parameterNumberName":"V-component_of_WINDS"},"data":[0,0,0,3.7148,3.7146,3.7011,3.701,3.6841,3.6839,0,0,0,0,0,0,0,0,0,0,0,3.7193,3.7192,3.7149,3.7145,3.7011,3.701,3.6841,3.6839,0,0,0,0,0,0,0,0,0,0,0,3.7193,3.7192,3.7191,3.7145,3.7011,3.701,3.6841,3.6941,0,0,0,0,0,0,0,0,0,0,3.7071,3.7118,3.7193,3.7191,3.7144,3.7011,3.701,3.6946,3.6935,3.6904,0,3.6881,0,3.6858,3.6828,3.6828,0,0,0,3.7141,3.7127,3.7087,3.7191,3.7143,3.7011,3.707,3.694,3.6927,3.689,3.6878,3.6872,3.6855,3.6827,3.6827,3.6673,3.6673,0,0,3.7148,3.717,3.7096,3.7079,3.7104,3.7075,3.7066,3.6932,3.692,3.6877,3.6868,3.6852,3.6826,3.6825,3.6674,3.6673,0,0,0,3.7173,3.7175,3.7139,3.7086,3.7062,3.7071,3.7061,3.6925,3.6912,3.6866,3.685,3.6825,3.6823,3.6674,3.6673,3.6673,0,0,0,3.7177,3.719,3.7142,3.7154,3.7065,3.6993,3.7058,3.6921,3.6905,3.6851,3.6825,3.6822,3.6675,3.6674,3.6674,3.6668,0,0,0,3.72,3.7192,3.7175,3.7156,3.7099,3.6994,3.6973,3.6917,3.6896,3.6828,3.6821,3.6675,3.6674,3.6675,3.6669,3.6635,0,0,0,3.723,3.7173,3.7175,3.7105,3.71,3.6996,3.6974,3.6893,3.6835,3.6824,3.6675,3.6674,3.6675,3.667,3.6637,3.6611,3.6603,0,0,3.717,3.7166,3.7123,3.7122,3.7024,3.7015,3.6915,3.6837,3.6808,3.6719,3.6715,3.6673,3.6669,3.6636,3.6548,3.6541,0,0,0,3.7112,3.7081,3.7051,3.6998,3.6941,3.6892,3.6829,3.68,3.6725,3.6768,3.6651,3.6648,3.6627,3.6614,3.6608,3.6589,3.6668,3.6669,3.6669,3.7056,3.7027,3.6955,3.691,3.6859,3.6797,3.6753,3.6704,3.6684,3.6658,3.6631,3.6582,3.6567,3.6563,3.6544,3.6615,3.6615,3.6615,3.6615,3.6966,3.6919,3.6901,3.6825,3.6793,3.6727,3.6665,3.6655,3.6588,3.6598,3.6578,3.6593,3.6557,3.6539,3.6614,3.6614,3.6614,3.6614,3.6615,3.6927,3.69,3.687,3.6794,3.6737,3.6692,3.6631,3.6603,3.6575,3.6556,3.6526,3.6526,3.6522,3.6544,3.6544,3.6543,3.6543,3.6543,3.6543,3.6899,3.6865,3.6818,3.6756,3.6721,3.667,3.6609,3.6572,3.6523,3.6508,3.6507,3.6492,3.656,3.6578,3.654,3.6541,3.6541,3.6541,3.6542,3.6818,3.6833,3.6761,3.6726,3.6652,3.6599,3.6566,3.6494,3.6459,3.6429,3.6419,3.6474,3.6466,3.647,3.6485,3.6426,3.6426,3.6426,3.6426,3.6786,3.6781,3.6703,3.6649,3.6593,3.6557,3.6475,3.6428,3.638,3.6357,3.6361,3.6378,3.6384,3.6373,3.6379,3.6393,3.6311,3.6311,3.6311,3.6735,3.6725,3.6662,3.662,3.6561,3.651,3.6433,3.637,3.6318,3.6306,3.6338,3.6343,3.637,3.638,3.6368,3.6378,3.6401,0,0]}]]